{"data":{"norad_id":67958,"epoch":"2026-05-25T04:52:47.202240Z","epoch_age_seconds":53635,"freshness":"FRESH","line1":"1 67958U 26037AC  26145.20332410  .00014876  00000+0  54885-3 0  9994","line2":"2 67958  42.9998 118.4974 0000958 284.4498  75.6248 15.27590357 15049","mean_motion":15.27590357,"eccentricity":9.58e-5,"inclination_deg":42.9998,"raan_deg":118.4974,"arg_perigee_deg":284.4498,"mean_anomaly_deg":75.6248,"bstar":0.00054885,"rev_number":1504,"period_min":94.26610958896,"perigee_km":482.36078497395,"apogee_km":483.67538228797,"semimajor_km":6861.155083631,"source":"CELESTRAK","updated_at":"2026-05-25T13:38:21.771934Z"}}